Wind_Speed
50 50 50 51 51 51 51 52 52 51 49 49 50 50 51 51 51 51 51 50 49 49 49 50 49 49 48 48 47 48 48 47 46 46 46 45 44 44
49 50 50 51 51 50 51 52 52 52 51 49 49 50 51 51 51 51 51 50 49 49 49 49 49 49 48 47 47 48 48 47 46 46 46 45 44 45
48 49 50 50 51 51 51 52 52 52 52 49 50 50 50 50 50 50 50 50 49 49 48 49 49 49 50 48 47 47 47 47 46 46 46 45 45 46
49 49 49 50 50 51 51 52 52 52 51 50 49 49 49 49 50 50 49 49 49 49 48 48 49 49 50 48 46 47 47 46 47 47 47 47 46 46
47 48 49 49 49 49 49 50 50 50 50 50 49 48 49 49 50 50 50 50 48 48 48 48 48 48 48 48 47 46 48 47 48 48 48 48 47 46
47 47 48 48 48 48 49 49 49 49 49 49 48 48 48 49 49 49 49 48 48 48 47 47 47 48 48 48 48 47 48 48 48 48 48 48 48 47
47 47 47 48 48 49 48 48 48 48 48 47 47 47 47 48 48 48 49 48 49 48 48 48 48 47 47 47 47 48 48 48 48 48 47 47 47 47
46 47 47 47 48 47 47 47 47 47 46 46 46 47 47 47 47 48 49 49 48 48 48 48 48 47 46 46 47 48 47 47 47 47 47 47 47 46
46 46 46 46 46 46 46 46 45 45 46 46 47 47 48 48 48 48 49 49 49 48 49 48 47 47 46 46 47 48 48 46 46 46 46 45 45 45
45 45 45 44 44 44 45 45 45 45 46 46 47 47 47 47 48 48 48 48 48 48 48 48 48 47 46 47 47 48 48 46 45 45 44 44 44 43
43 44 44 44 44 44 44 44 45 45 46 46 46 46 46 46 46 47 48 48 47 47 46 46 46 46 45 44 44 44 45 45 44 44 44 43 43 41
42 42 43 43 43 44 43 44 44 44 43 43 43 43 43 44 44 45 45 45 45 44 44 44 44 44 43 42 42 42 43 44 43 42 42 42 42 40
41 40 41 41 41 42 42 42 41 41 41 41 42 41 41 41 41 40 41 42 42 41 41 42 42 41 41 41 42 43 43 43 42 42 41 41 40 39
39 39 39 40 40 40 41 41 40 40 40 41 41 40 39 39 38 37 37 38 38 38 39 40 40 40 39 39 40 40 41 40 40 40 40 39 38 38
38 38 38 38 38 38 39 39 39 40 41 40 40 38 38 37 37 37 36 36 36 37 38 38 38 38 38 37 36 36 37 37 37 37 37 37 37 36
37 37 37 37 37 37 37 37 38 38 38 38 38 37 37 38 38 37 37 36 36 35 35 36 36 36 36 36 36 35 35 35 34 34 34 34 34 34
36 36 36 36 36 36 36 36 36 36 36 36 36 36 36 36 36 36 35 35 34 34 34 34 34 34 34 33 33 33 33 33 32 32 32 31 31 31
34 34 35 35 35 35 35 34 34 33 33 33 33 33 33 33 32 32 32 32 31 31 31 31 31 32 31 31 30 30 31 31 30 29 28 28 28 28
31 31 32 32 32 32 32 32 31 31 31 31 30 31 30 30 30 30 30 30 29 29 28 28 29 29 29 28 28 27 27 27 27 26 26 26 26 27
28 29 29 29 30 29 29 29 29 28 28 28 28 28 28 28 28 27 28 28 27 26 26 25 25 25 25 25 25 25 24 24 24 24 24 24 24 24
26 27 27 26 26 25 25 26 26 26 26 26 25 25 25 25 25 25 25 25 25 25 24 23 23 23 23 23 23 22 22 22 21 21 22 22 22 22
25 25 25 24 23 23 23 23 23 23 23 22 22 22 22 22 23 23 23 23 23 23 23 22 22 21 21 20 20 19 20 20 19 19 19 20 20 20
24 23 22 22 22 22 22 22 22 21 21 21 20 21 21 21 21 21 21 21 22 21 21 20 20 19 18 18 18 18 18 19 19 18 18 18 18 18
Wind_Direction
271 272 272 273 273 273 273 274 274 274 274 272 270 268 268 268 269 268 269 270 271 271 270 269 269 267 268 268 268 267 267 268 267 267 267 268 268 269
271 272 273 274 274 274 274 274 275 275 274 272 270 268 267 268 268 269 268 269 270 270 270 270 269 268 268 267 267 266 266 267 268 267 267 268 268 268
271 272 273 273 273 274 275 275 275 275 274 272 270 269 268 267 268 268 268 269 269 269 269 269 269 268 267 267 267 266 266 266 268 267 267 267 268 268
272 273 274 273 274 274 274 274 273 274 273 271 269 268 267 267 267 267 268 268 268 268 268 268 268 267 267 266 267 267 265 265 266 267 267 266 268 269
273 274 274 275 275 274 274 274 273 272 272 271 269 268 267 266 267 267 267 267 268 267 267 267 266 266 266 267 267 267 266 265 265 266 266 267 267 268
275 275 275 275 275 275 274 274 273 272 271 271 270 268 268 269 268 266 266 266 266 266 266 266 267 267 267 267 267 266 266 266 265 266 267 267 267 269
275 276 275 275 275 275 275 274 273 272 271 271 270 269 269 269 268 267 266 266 266 266 267 267 268 269 267 266 266 265 266 267 267 267 267 267 268 268
276 276 275 275 275 275 274 273 273 271 270 269 269 269 269 269 269 268 267 266 265 266 267 267 268 268 267 266 266 265 266 266 267 267 267 267 268 268
276 276 276 275 276 275 273 272 272 271 270 270 269 269 270 270 270 269 268 267 266 266 267 267 268 268 267 267 266 266 266 265 266 267 267 266 266 268
277 276 276 276 276 274 272 272 271 270 270 271 272 271 271 271 270 270 269 267 266 265 267 267 267 268 269 268 267 267 266 266 266 265 264 265 266 267
278 277 277 276 275 275 274 273 272 272 272 273 273 273 273 273 272 271 270 267 266 265 267 267 267 267 268 268 268 267 266 265 264 264 263 264 266 266
279 279 278 278 277 277 276 274 273 273 273 274 274 274 273 272 272 271 269 267 266 265 265 265 265 266 266 266 266 266 267 266 264 263 262 262 264 263
281 280 280 280 279 278 278 277 275 274 274 275 275 274 273 272 272 270 268 267 266 265 264 264 264 264 265 265 265 265 266 265 264 263 261 261 262 262
283 281 280 280 280 279 279 278 276 275 275 276 275 273 272 271 270 268 268 266 266 264 263 263 263 264 265 265 264 264 265 264 262 262 261 259 260 260
283 282 281 281 281 281 280 279 278 277 276 275 275 272 270 269 269 268 267 267 266 265 263 263 263 264 265 265 264 264 264 263 262 262 261 259 258 258
283 282 281 281 281 282 281 280 279 278 277 275 273 270 269 269 269 268 267 267 266 265 264 263 263 265 265 265 265 265 265 264 262 262 261 259 257 257
283 282 281 281 281 282 282 281 280 278 277 275 273 272 270 270 269 268 266 265 264 264 263 263 264 265 265 265 266 266 265 263 263 262 260 257 257 256
284 283 283 283 283 283 282 281 280 279 278 276 273 271 270 269 268 266 265 263 263 264 264 264 265 265 264 264 264 265 264 262 261 259 257 256 256 255
286 286 286 286 286 285 283 282 280 279 278 276 273 270 270 269 267 265 264 263 263 264 265 265 266 265 265 263 262 262 261 260 258 258 257 256 257 257
288 289 289 288 288 287 286 283 282 280 278 276 273 271 270 269 266 264 263 262 263 264 265 266 265 264 263 261 259 258 257 256 255 254 254 255 256 256
290 291 290 289 289 288 288 287 285 282 279 276 273 272 270 268 265 262 262 261 261 263 264 264 263 262 261 259 256 254 252 252 253 253 252 253 254 254
294 293 291 289 288 289 289 289 288 285 280 275 273 270 269 267 265 262 261 261 261 262 262 261 260 260 259 255 252 251 250 249 250 253 254 254 255 255
295 294 293 292 290 289 289 289 288 285 279 275 272 270 269 267 265 262 261 261 260 260 259 257 257 257 254 248 246 248 249 249 249 251 254 254 254 256
Height
5641 5640 5639 5638 5636 5635 5634 5633 5632 5632 5634 5634 5631 5629 5628 5627 5627 5627 5626 5626 5625 5625 5624 5624 5624 5624 5625 5625 5625 5626 5627 5627 5627 5628 5628 5629 5629 5629
5627 5627 5626 5625 5623 5621 5620 5619 5617 5616 5618 5619 5617 5616 5614 5614 5614 5613 5612 5612 5612 5611 5611 5611 5611 5611 5611 5611 5612 5613 5613 5614 5614 5615 5616 5616 5616 5617
5614 5613 5612 5611 5609 5608 5606 5605 5604 5602 5602 5604 5603 5602 5601 5600 5600 5599 5599 5599 5599 5598 5598 5598 5598 5597 5598 5598 5598 5599 5600 5601 5601 5602 5603 5603 5603 5604
5601 5600 5599 5597 5596 5594 5592 5591 5590 5588 5587 5588 5589 5588 5587 5587 5586 5586 5586 5586 5586 5585 5585 5585 5584 5584 5585 5585 5585 5586 5587 5588 5589 5589 5590 5591 5591 5591
5588 5587 5585 5584 5582 5581 5579 5577 5576 5575 5573 5573 5575 5574 5573 5573 5572 5572 5572 5572 5571 5571 5571 5571 5571 5571 5571 5571 5572 5573 5574 5575 5576 5576 5577 5578 5578 5578
5575 5574 5572 5570 5569 5567 5566 5564 5562 5561 5560 5560 5560 5560 5560 5559 5558 5558 5558 5558 5558 5558 5558 5558 5558 5558 5558 5559 5560 5560 5560 5561 5562 5563 5563 5564 5565 5565
5562 5560 5559 5557 5555 5553 5552 5550 5549 5548 5547 5547 5547 5547 5546 5545 5545 5544 5544 5544 5545 5545 5545 5545 5545 5545 5545 5545 5546 5546 5547 5547 5548 5549 5550 5551 5552 5552
5548 5546 5545 5543 5541 5539 5538 5536 5535 5534 5534 5533 5534 5533 5533 5532 5531 5530 5530 5530 5532 5533 5532 5532 5532 5532 5532 5532 5532 5533 5533 5534 5535 5536 5537 5538 5539 5539
5535 5533 5531 5529 5527 5526 5524 5523 5522 5521 5520 5520 5520 5520 5519 5519 5517 5516 5515 5515 5517 5518 5517 5518 5518 5519 5519 5518 5519 5519 5520 5521 5522 5523 5524 5524 5526 5526
5522 5520 5518 5516 5514 5512 5511 5510 5509 5508 5508 5507 5507 5506 5505 5504 5502 5502 5501 5501 5502 5504 5504 5504 5505 5505 5505 5505 5505 5505 5506 5507 5509 5510 5511 5512 5513 5514
5509 5507 5505 5503 5501 5499 5498 5497 5496 5495 5493 5493 5492 5491 5490 5489 5488 5487 5487 5487 5488 5490 5491 5490 5491 5492 5493 5493 5493 5492 5493 5494 5495 5496 5498 5499 5500 5501
5497 5494 5492 5490 5488 5486 5484 5483 5482 5482 5480 5479 5478 5477 5476 5475 5474 5473 5473 5474 5475 5477 5478 5478 5478 5479 5480 5481 5480 5480 5481 5481 5482 5483 5484 5486 5488 5489
5485 5482 5480 5477 5475 5473 5471 5470 5469 5468 5467 5466 5465 5464 5463 5463 5462 5461 5461 5461 5462 5464 5465 5465 5466 5466 5467 5469 5469 5468 5469 5469 5470 5471 5472 5473 5475 5477
5473 5470 5468 5465 5463 5461 5459 5458 5457 5456 5455 5454 5453 5452 5452 5451 5451 5450 5450 5449 5450 5451 5452 5452 5453 5454 5454 5455 5457 5457 5457 5457 5458 5459 5460 5461 5464 5465
5461 5459 5456 5454 5452 5450 5448 5447 5445 5443 5442 5442 5441 5441 5441 5440 5439 5439 5439 5438 5439 5439 5440 5441 5442 5442 5443 5444 5445 5445 5446 5446 5446 5448 5449 5450 5452 5454
5450 5447 5445 5443 5441 5440 5438 5436 5434 5432 5430 5430 5430 5430 5429 5429 5428 5428 5428 5428 5428 5429 5430 5430 5430 5431 5432 5433 5434 5434 5434 5435 5436 5437 5438 5440 5442 5444
5439 5437 5435 5433 5431 5429 5427 5425 5423 5421 5420 5419 5419 5419 5418 5418 5418 5418 5417 5418 5418 5419 5420 5420 5420 5420 5421 5422 5423 5424 5424 5425 5426 5427 5429 5431 5432 5434
5428 5426 5425 5423 5421 5419 5417 5415 5413 5412 5410 5409 5408 5408 5408 5408 5408 5408 5408 5408 5409 5410 5410 5411 5411 5411 5412 5413 5414 5415 5416 5416 5417 5419 5420 5422 5424 5426
5418 5417 5415 5413 5411 5409 5407 5405 5404 5402 5401 5400 5399 5399 5399 5399 5399 5399 5399 5400 5401 5401 5401 5402 5402 5402 5404 5406 5407 5407 5407 5408 5410 5412 5413 5415 5416 5418
5410 5408 5406 5404 5402 5400 5398 5396 5395 5393 5392 5391 5391 5390 5390 5390 5391 5391 5391 5392 5393 5394 5394 5394 5394 5395 5396 5398 5399 5400 5400 5401 5403 5405 5406 5408 5409 5410
5403 5401 5399 5396 5394 5392 5390 5388 5387 5385 5384 5383 5383 5382 5382 5382 5383 5384 5384 5385 5386 5386 5387 5388 5388 5388 5389 5390 5392 5393 5394 5395 5397 5398 5400 5401 5402 5403
5396 5394 5392 5389 5387 5385 5383 5381 5380 5378 5377 5376 5376 5376 5376 5376 5376 5377 5377 5378 5379 5380 5381 5381 5382 5382 5383 5384 5386 5387 5389 5390 5391 5392 5394 5396 5396 5397
5390 5387 5385 5383 5381 5379 5377 5375 5373 5372 5371 5370 5370 5370 5370 5370 5370 5370 5371 5371 5372 5373 5374 5375 5376 5377 5378 5379 5381 5382 5384 5385 5387 5388 5390 5390 5391 5391